www.pogodaiklimat.ru

Погода и климат >> Архив погоды >> Малайзия >> Kuala Lumpur


АРХИВ ПОГОДЫ в Kuala Lumpur

Время (UTC), дата Ветер
(напр.,м/с)
 
Видим.   Явления Облачность Т
(С)
Тd
(С)
f
(%)
Тe
(С)
Тes
(С)
Комфортность P
(гПа)
Po
(гПа)
Тmin
(С)
Tmax
(С)
R
(мм)
R24
(мм)
S
(см)
09 14.10 З 4 15 км мгла 9/4 600 м
[Cu hum Ac trans Ci sp]
+32.3 +21.7 54 +41 +42 опасность
перегрева
1006.4 1003.9
12 14.10 СЗ 2 10 км мгла 9/1 800 м
[Sc Ac trans Ci sp]
+29.1 +22.8 69 +39 +39 очень
душно
1008.8 1006.3 +33.8
15 14.10 штиль 0 10 км мгла 9/1 800 м
[Sc Ac trans Ci sp]
+28.1 +23.6 77 +39 +39 очень
душно
1010.3 1007.8
18 14.10 штиль 0 10 км мгла 9/3 800 м
[Sc Ac lent Ci sp]
+26.6 +23.6 84 +36 +36 очень
душно
1009.3 1006.8
21 14.10 штиль 0 9000 м мгла 9/3 800 м
[Sc Ac lent Ci sp]
+26.2 +23.6 86 +36 +36 очень
душно
1008.6 1006.1
00 15.10 штиль 0 8000 м мгла 9/4 500 м
[Cb cap Ac lent Ci sp]
+26.4 +23.8 86 +36 +37 очень
душно
1010.0 1007.5 +23.9
03 15.10 СВ 1 20 км мгла 9/1 360 м
[Cu hum Ac lent Ci sp]
+30.9 +23.7 66 +42 +51 опасность
перегрева
1010.8 1008.3
06 15.10 СЗ 3 20 км мгла 9/1 540 м
[Cu hum Ac lent Ci sp]
+33.5 +23.0 54 +44 +53 опасность
перегрева
1008.0 1005.5
09 15.10 З 4 15 км мгла 9/1 540 м
[Cu hum Ac trans Cs]
+32.0 +23.3 60 +43 +45 опасность
перегрева
1006.9 1004.4
12 15.10 СЗ 2 12 км мгла 10/1 900 м
[Sc Ac trans Cs]
+29.3 +24.2 74 +41 +41 опасность
перегрева
1008.8 1006.3 +34.1
15 15.10 С 2 10 км зарница 9/3 500 м
[Cb calv Ac trans Ci fib]
+28.0 +24.4 81 +39 +39 очень
душно
1011.3 1008.8
18 15.10 С 1 10 км зарница 9/3 500 м
[Cb calv Ac trans Ci fib]
+27.1 +24.2 84 +38 +38 очень
душно
1010.2 1007.7
21 15.10 штиль 0 8000 м мгла 9/1 800 м
[Sc Ac trans Ci fib]
+25.6 +24.2 92 +35 +35 очень
душно
1009.2 1006.7
00 16.10 штиль 0 7000 м мгла 9/3 60 м
[Frnb Ac trans Ci sp]
+26.3 +24.5 90 +37 +37 очень
душно
1011.3 1008.8 +25.4
03 16.10 ЮЗ 1 10 км мгла 9/4 570 м
[Cu med, cong Ac trans Ci fib]
+31.4 +24.5 67 +44 +50 опасность
перегрева
1011.6 1009.1
06 16.10 Ю 2 10 км мгла 9/4 570 м
[Cu med, cong Ac trans Ci fib]
+33.0 +22.1 53 +42 +49 опасность
перегрева
1008.9 1006.4
09 16.10 З 4 10 км мгла 9/3 570 м
[Cu med, cong Ac trans Ci fib]
+33.3 +22.8 54 +43 +45 опасность
перегрева
1007.2 1004.7
12 16.10 штиль 0 10 км мгла 9/1 750 м
[Sc Ac lent Ci fib]
+29.4 +20.8 60 +37 +37 очень
душно
1008.7 1006.2 +33.8
15 16.10 штиль 0 10 км мгла 9/1 900 м
[Sc Ac trans Ci fib]
+26.6 +22.6 79 +35 +35 очень
душно
1011.3 1008.8
18 16.10 штиль 0 8000 м мгла 9/1 900 м
[Sc Ac trans Ci fib]
+25.8 +22.7 83 +34 +34 очень
душно
1010.1 1007.6
21 16.10 штиль 0 10 км мгла 9/1 900 м
[Sc Ac trans Ci sp]
+25.5 +22.2 82 +33 +33 очень
душно
1009.1 1006.6
00 17.10 штиль 0 14 км мгла 9/1 900 м
[Sc Ac trans Ci fib]
+26.1 +22.0 78 +34 +34 очень
душно
1010.6 1008.1 +24.7
03 17.10 ЮВ 2 15 км мгла 9/3 570 м
[Cu med, cong Ac trans Ci sp]
+30.6 +23.3 65 +41 +47 опасность
перегрева
1011.6 1009.1
06 17.10 Ю 1 18 км мгла 9/4 600 м
[Cu med, cong Ac trans Ci sp]
+33.5 +22.2 52 +43 +51 опасность
перегрева
1008.2 1005.7
09 17.10 ЮЗ 4 18 км мгла 9/3 600 м
[Cu med, cong Ac trans Ci sp]
+34.3 +22.2 49 +43 +45 опасность
перегрева
1006.1 1003.6
12 17.10 ЮВ 1 10 км мгла 9/3 800 м
[Sc diur, vesp Ac trans Ci fib]
+30.0 +19.8 54 +36 +36 очень
душно
1008.2 1005.7 +31.3
15 17.10 штиль 0 8000 м мгла 9/3 800 м
[Sc Ac trans Ci fib]
+26.9 +20.8 69 +34 +34 очень
душно
1010.8 1008.3
18 17.10 штиль 0 8000 м мгла 9/4 750 м
[Sc Ac trans Ci fib]
+25.3 +21.1 78 +32 +32 очень
душно
1010.0 1007.5
21 17.10 штиль 0 8000 м мгла 9/3 750 м
[Sc Ac trans Ci fib]
+24.8 +21.3 81 +31 +31 очень
душно
1009.1 1006.6
00 18.10 штиль 0 10 км мгла 9/3 800 м
[Sc Ac trans Ci fib]
+25.1 +20.8 77 +31 +32 очень
душно
1010.3 1007.8 +24.5
03 18.10 ЮВ 2 15 км мгла 9/1 600 м
[Cu hum Ac trans Ci sp]
+32.1 +20.9 52 +40 +47 очень
душно
1011.3 1008.8
06 18.10 Ю 2 15 км мгла 9/3 540 м
[Cu med, cong Ac trans Ci sp]
+34.8 +20.7 44 +42 +50 опасность
перегрева
1008.6 1006.1
09 18.10 З 5 15 км мгла 9/3 570 м
[Cu hum Ac trans Ci sp]
+33.3 +23.6 57 +44 +46 опасность
перегрева
1007.4 1004.9
12 18.10 штиль 0 10 км мгла 9/1 800 м
[Sc Ac trans Ci sp]
+29.4 +23.9 72 +40 +40 очень
душно
1009.5 1007.0 +35.5
15 18.10 штиль 0 6000 м мгла 9/0 800 м
[Ac trans Ci sp]
+27.4 +24.0 82 +38 +38 очень
душно
1011.5 1009.0
18 18.10 С 2 4000 м мгла 9/1 800 м
[Sc Ac trans Ci sp]
+26.9 +24.0 84 +37 +37 очень
душно
1010.6 1008.1
21 18.10 СЗ 1 6000 м мгла 9/3 800 м
[Sc Ac trans Ci sp]
+26.3 +23.2 83 +35 +35 очень
душно
1010.2 1007.7
00 19.10 СЗ 2 7000 м мгла 9/3 500 м
[Cb cap Ac trans Ci sp]
+25.8 +22.6 83 +34 +34 очень
душно
1012.0 1009.5 +25.1
03 19.10 СЗ 3 12 км мгла 9/3 570 м
[Cu med, cong Ac trans Ci fib]
+31.7 +23.1 60 +42 +47 опасность
перегрева
1012.9 1010.4
06 19.10 СЗ 3 12 км мгла 9/3 570 м
[Cu med, cong Ac trans Ci fib]
+34.1 +21.8 49 +43 +50 опасность
перегрева
1009.9 1007.4
09 19.10 З 4 12 км мгла 9/3 570 м
[Cu med, cong Ac trans Ci fib]
+34.2 +21.0 46 +41 +43 опасность
перегрева
1008.5 1006.0
12 19.10 З 2 10 км мгла 9/3 800 м
[Sc Ac trans Ci fib]
+29.3 +24.5 75 +41 +41 опасность
перегрева
1010.7 1008.2 +35.3
15 19.10 СЗ 1 8000 м мгла 9/1 800 м
[Sc Ac trans Ci fib]
+28.5 +24.9 81 +41 +41 опасность
перегрева
1013.0 1010.5
18 19.10 СЗ 2 7000 м мгла 9/1 800 м
[Sc Ac trans Ci fib]
+27.6 +24.5 83 +39 +39 очень
душно
1012.7 1010.2
21 19.10 С 1 6000 м зарница 9/3 500 м
[Cb calv Ac trans Ci fib]
+27.4 +24.4 84 +39 +39 очень
душно
1011.9 1009.4
00 20.10 СЗ 2 8000 м мгла 9/3 150 м
[St Ac trans Cs]
+27.4 +24.4 84 +39 +39 очень
душно
1012.7 1010.2 +25.8
03 20.10 СЗ 3 12 км мгла 9/3 540 м
[Cu med, cong Ac lent Ci sp]
+31.2 +23.9 65 +43 +48 опасность
перегрева
1013.6 1011.1
06 20.10 З 5 15 км мгла 9/4 600 м
[Cu med, cong Ac trans Ci sp]
+33.8 +24.2 57 +46 +50 опасность
перегрева
1011.0 1008.5
09 20.10 З 4 15 км мгла 9/4 500 м
[Cb cap Ac trans Ci sp]
+33.8 +24.3 58 +46 +48 опасность
перегрева
1009.5 1007.0
12 20.10 З 2 10 км мгла 9/3 800 м
[Sc Ac trans Ci fib]
+29.9 +24.4 72 +42 +42 опасность
перегрева
1011.2 1008.7 +34.7
15 20.10 штиль 0 8000 м мгла 9/3 800 м
[Sc Ac trans Ci fib]
+29.0 +24.5 77 +41 +41 опасность
перегрева
1013.4 1010.9
18 20.10 СЗ 2 8000 м мгла 9/4 750 м
[Sc Ac trans Ci sp]
+28.2 +24.3 79 +39 +39 очень
душно
1012.2 1009.7
21 20.10 штиль 0 8000 м мгла 9/3 750 м
[Sc Ac trans Ci fib]
+27.2 +24.3 84 +38 +38 очень
душно
1011.4 1008.9
00 21.10 СЗ 1 9000 м мгла 8/1 570 м
[Cu med, cong Ac trans Ci fib]
+27.4 +24.4 84 +39 +39 очень
душно
1013.1 1010.6 +26.7
03 21.10 СЗ 4 15 км мгла 9/1 360 м
[Cu hum Ac trans Ci fib]
+32.4 +24.2 62 +45 +50 опасность
перегрева
1013.5 1011.0
06 21.10 СЗ 5 15 км мгла 9/1 450 м
[Cu med, cong Ac trans Ci fib]
+34.1 +21.8 49 +43 +48 опасность
перегрева
1010.8 1008.3

 

Местоположение метеостанции Kuala Lumpur (Малайзия): широта 3.12 долгота 101.55 высота над уровнем моря 22 м.

В архиве по умолчанию представлена погода в Kuala Lumpur за последнюю неделю. Архивные данные за месяц целиком и за предыдущие месяцы, начиная с января 2011 года, Вы можете получить, выбрав интересующий диапазон дат из раскрывающегося списка и нажав кнопку "Ввод!".

Внимание! Время в таблицах - всемирное. Для получения местного времени необходимо прибавить поправку, которая в Kuala Lumpur равна 7 ч.

Смотрите также архив погоды в соседних городах и на ближайших метеорологических станциях:

Погода в Kuala Lumpur Int Airport (Малайзия) (48 км)
Погода в Malacca (Малайзия) (122 км)
Погода в Cameron Highlands (Малайзия) (151 км)
Погода в Sitiawan (Малайзия) (155 км)
Погода в Ipoh (Малайзия) (169 км)
Погода в Kuantan (Малайзия) (198 км)
Погода в Penang (Малайзия) (282 км)
Погода в Johore Bharu / Senai (Малайзия) (288 км)
Погода в Butterworth Air Base (Малайзия) (292 км)
Погода в Pekanbaru (Индонезия) (295 км)

Пояснения к столбцам:

Ветер - указаны скорость ветра в м/с - средняя за 10 мин, порывы в срок и между сроками (в фигурных скобках) и направление, откуда дует ветер: С - северный, СВ - северо-восточный, В - восточный, ЮВ - юго-восточный, Ю - южный, ЮЗ - юго-западный, З - западный, СЗ - северо-западный.
Видимость - горизонтальная дальность видимости в метрах или километрах. При видимости от 1 до 10 км при отсутствии осадков обычно наблюдается дымка, при ухудшении видимости до 1 км и менее - туман. В сухую погоду видимость может ухудшаться дымом, пылью или мглою.
Явления - указаны атмосферные явления, наблюдавшиеся в срок или в последний час перед сроком; фигурными скобками обозначены явления, наблюдавшиеся между сроками (за 1-3 часа до срока); квадратными скобками обозначены град или гололедные отложения с указанием их диаметра в мм.
Облачность - указаны через наклонную черту общая и нижняя облачность в баллах и высота нижней границы облаков в метрах; квадратными скобками обозначены формы облаков: Ci - перистые, Cs - перисто-слоистые, Cc - перисто-кучевые, Ac - высококучевые, As - высокослоистые, Sc - слоисто-кучевые, Ns - слоисто-дождевые, Cu - кучевые, Cb - кучево-дождевые. Подробнее классификацию облаков см. в Атласе облаков (PDF).
T - Температура воздуха - температура, измеренная на высоте 2 м над землей.
Td - Температура точки росы - температура, при понижении до которой содержащийся в воздухе водяной пар достигнет насыщения.
f - Относительная влажность воздуха - влажноcть воздуха, измеренная на высоте 2 м над землей.
Te - Эффективная температура - температура, которую ощущает одетый по сезону человек в тени. Характеристика душности погоды. При расчете учитывается влияние влажности воздуха и скорости ветра на теплоощущения человека.
Tes - Эффективная температура на солнце - температура, которую ощущает человек, с поправкой на солнечный нагрев. Характеристика знойности погоды. Зависит от высоты солнца над горизонтом, облачности и скорости ветра. Ночью, в пасмурную погоду, а также при ветре 12 м/с и более поправка равна нулю.
P - Атмосферное давление - приведенное к уровню моря атмосферное давление.
Po - Атмосферное давление - измеренное на уровне метеостанции атмосферное давление.
Tmin - Минимальная температура - минимум температуры воздуха на высоте 2 м над землей.
Tmax - Максимальная температура - максимум температуры воздуха на высоте 2 м над землей.
R - Количество осадков - Количество выпавших осадков за период времени, мм. При наведении курсора мыши на число - период времени, за который выпало указанное количество осадков.
R24 - Количество осадков - Количество выпавших осадков за 24 часа, мм.
S - Снежный покров - Высота снежного покрова, см. При наведении курсора мыши на число - состояние снежного покрова и степень покрытия местности в баллах.